Overview Statistics Trail Chart Weather Telemetry Raw packets
 

This is the latest recevied weather packets stored in our database for station/object KK7MLS-13. If no packets are shown the sender has not sent any weather packets the latest 10 day(s).

<< 63 64 65 66 67 68 69 >>
Time Temp. Humidity Pressure Rain* Wind** Luminosity Snow
1788235448 21.67° C 55% 1008.4 hPa 0 mm - 0 W/m² -
1788235147 21.67° C 54% 1008.4 hPa 0 mm - 0 W/m² -
1788234846 21.67° C 55% 1008.4 hPa 0 mm - 0 W/m² -
1788234545 21.67° C 55% 1008.2 hPa 0 mm - 0 W/m² -
1788234240 21.67° C 54% 1008.1 hPa 0 mm - 0 W/m² -
1788233935 21.67° C 55% 1008.1 hPa 0 mm - 0 W/m² -
1788233634 21.67° C 55% 1008 hPa 0 mm - 0 W/m² -
1788233333 21.67° C 54% 1007.8 hPa 0 mm - 0 W/m² -
1788233032 22.22° C 55% 1007.7 hPa 0 mm - 0 W/m² -
1788232728 22.22° C 53% 1007.7 hPa 0 mm - 0 W/m² -
1788232423 22.22° C 53% 1007.6 hPa 0 mm - 0 W/m² -
1788232123 22.78° C 53% 1007.5 hPa 0 mm - 0 W/m² -
1788231818 22.78° C 53% 1007.6 hPa 0 mm - 0 W/m² -
1788231518 22.78° C 52% 1007.6 hPa 0 mm - 1 W/m² -
1788231213 23.33° C 51% 1007.5 hPa 0 mm - 1 W/m² -
1788230913 23.89° C 51% 1007.5 hPa 0 mm - 2 W/m² -
1788230612 23.89° C 50% 1007.5 hPa 0 mm - 3 W/m² -
1788230310 24.44° C 49% 1007.5 hPa 0 mm - 4 W/m² -
1788230006 24.44° C 49% 1007.5 hPa 0 mm - 6 W/m² -
1788229701 25° C 49% 1007.5 hPa 0 mm - 9 W/m² -
1788229397 25.56° C 47% 1007.8 hPa 0 mm - 11 W/m² -
1788229092 25.56° C 47% 1007.6 hPa 0 mm - 13 W/m² -
1788228788 26.11° C 45% 1007.6 hPa 0 mm - 17 W/m² -
1788228482 26.11° C 44% 1007.6 hPa 0 mm - 22 W/m² -
1788228177 26.67° C 43% 1007.8 hPa 0 mm - 24 W/m² -

* Rain latest hour (hover to see other rain measurements)
** Current wind speed in m/s (hover to see current wind gust speed)